Location: Eboldshausen
(51.7766°N, 10.0050°E)
Time: 01:00:59
(UTC+00:00)

Cosmos 1844 Rocket - Pass Details

Date: 15 November 2025
Orbit: 822 x 844 km, 71.0° (Epoch: 13 December)

Event Time Altitude Azimuth Distance (km) Brightness Sun altitude
Rises 17:03:32 0° 250° (WSW) 3,356 7.7 -14.4°
Reaches altitude 10° 17:06:20 10° 263° (W) 2,429 6.5 -14.8°
Maximum altitude 17:11:00 27° 320° (NW) 1,555 4.4 -15.5°
Drops below altitude 10° 17:15:43 10° 17° (NNE) 2,448 4.8 -16.2°
Enters shadow 17:16:53 - 24° (NNE) 2,822 5.1 -16.4°
